Overview Statistics Trail Chart Weather Telemetry Raw packets
 

This is the latest recevied weather packets stored in our database for station/object KQ7A. If no packets are shown the sender has not sent any weather packets the latest 10 day(s).

<< 104 105 106 107 108 109 110 >>
Time Temp. Humidity Pressure Rain* Wind** Luminosity Snow
1787897689 20° C 35% 1021.3 hPa 0 mm - 0 W/m² -
1787897389 18.89° C 33% 1021.1 hPa 0 mm - 0 W/m² -
1787897083 18.89° C 35% 1021.3 hPa 0 mm - 0 W/m² -
1787896782 18.89° C 37% 1021.3 hPa 0 mm - 0 W/m² -
1787896478 18.89° C 39% 1021.3 hPa 0 mm - 0 W/m² -
1787896173 18.89° C 40% 1021.3 hPa 0 mm - 0 W/m² -
1787895868 18.89° C 36% 1021.4 hPa 0 mm - 0 W/m² -
1787895563 19.44° C 39% 1021.3 hPa 0 mm - 0 W/m² -
1787895259 19.44° C 39% 1021.5 hPa 0 mm - 0 W/m² -
1787894954 20° C 37% 1021.4 hPa 0 mm - 0 W/m² -
1787894650 20° C 34% 1021.6 hPa 0 mm - 0 W/m² -
1787894349 20° C 34% 1021.5 hPa 0 mm - 0 W/m² -
1787894044 20.56° C 37% 1021.6 hPa 0 mm - 0 W/m² -
1787893741 21.11° C 31% 1021.6 hPa 0 mm - 0 W/m² -
1787893441 21.11° C 31% 1021.6 hPa 0 mm - 0 W/m² -
1787893136 21.67° C 35% 1021.8 hPa 0 mm - 0 W/m² -
1787892828 21.67° C 32% 1022 hPa 0 mm - 0 W/m² -
1787892524 21.11° C 30% 1021.8 hPa 0 mm - 0 W/m² -
1787892219 21.11° C 30% 1021.9 hPa 0 mm - 0 W/m² -
1787891914 21.11° C 32% 1021.8 hPa 0 mm - 0 W/m² -
1787891610 21.11° C 31% 1022 hPa 0 mm - 0 W/m² -
1787891305 21.11° C 31% 1021.8 hPa 0 mm - 0 W/m² -
1787890999 21.11° C 32% 1021.9 hPa 0 mm - 0 W/m² -
1787890693 21.67° C 33% 1022.2 hPa 0 mm - 0 W/m² -
1787890388 21.67° C 33% 1022.2 hPa 0 mm - 0 W/m² -

* Rain latest hour (hover to see other rain measurements)
** Current wind speed in m/s (hover to see current wind gust speed)